Miscellaneous Local Product
Issued by NWS North Platte, NE

Home | Current Version | Previous Version | Text Only | Print | Product List | Glossary On
Versions: 1 2 3 4 5 6 7 8 9 10 11 12 13 14 15 16 17 18 19 20 21 22 23 24 25 26 27 28 29 30 31 32 33 34 35 36 37 38 39 40 41 42 43 44 45 46 47 48 49 50
000
AXUS43 KLBF 191610
MISLBF


WESTERN AND NORTH CENTRAL NEBRASKA HOURLY WEATHER ROUNDUP
NATIONAL WEATHER SERVICE NORTH PLATTE NE
1100 AM CDT SAT APR 19 2014

***STATIONS NOT REPORTING VARIABLES SUCH AS SKY/WEATHER OR
PRESSURE ARE PROVIDED BY THE NEBRASKA DEPARTMENT OF
ROADS...RAWS...AND APRS NETWORKS...AND ARE NOT UNDER
NATIONAL WEATHER SERVICE QUALITY CONTROL***

...OBSERVATIONS IN AND NEAR THE EASTERN PANHANDLE OF NEBRASKA...

CITY           SKY/WX    TMP DP  RH WIND       PRES   REMARKS
PINE RIDGE     PTSUNNY   54  15  21 NE10      30.05R
CHADRON        PTSUNNY   52  30  43 CALM      30.06R
ALLIANCE       CLOUDY    51  24  34 NE16      30.05R
SIDNEY         CLOUDY    51  33  50 NE17      30.05R
WHITECLAY        N/A     53  15  22 N10         N/A
CRESCENT LAKE    N/A     55  27  34 NE12G20     N/A
LISCO            N/A     56  23  27 E14         N/A
BIG SPRINGS      N/A     54  42  62 NE13        N/A
LEWELLEN         N/A     59  32  36 NE10        N/A
$$

...OBSERVATIONS IN SOUTHWEST NEBRASKA AND FAR NORTHEAST COLORADO...

CITY           SKY/WX    TMP DP  RH WIND       PRES   REMARKS
WRAY           PTSUNNY   61  45  55 N21G28    29.98R
HOLYOKE        FAIR      55  41  58 NE22      30.01R
IMPERIAL       PTSUNNY   59  45  59 N16G28    29.97R
OGALLALA       CLOUDY    58  35  42 NE22G28   30.01R
NORTH PLATTE   PTSUNNY   59  43  55 NE14      29.99R
MCCOOK         MOSUNNY   61  48  62 NE9       29.93S
LEXINGTON      PTSUNNY   59  49  69 CALM      29.97R
PAXTON           N/A     55  42  62 N18         N/A
SUTHERLAND       N/A     53  37  55 NE15        N/A
MEDICINE CREEK   N/A     58  49  72 CALM        N/A
GOTHENBURG       N/A     60  49  67 CALM        N/A
CALLAWAY         N/A     56  48  75 N5          N/A
$$

...OBSERVATIONS IN NORTH CENTRAL NEBRASKA...

CITY           SKY/WX    TMP DP  RH WIND       PRES   REMARKS
VALENTINE      PTSUNNY   56  28  34 N12       30.05R
THEDFORD       PTSUNNY   60  34  37 NE14G20   30.03R
AINSWORTH      PTSUNNY   57  34  40 N7G16     30.04R
O`NEILL        MOSUNNY   62  40  44 N7G17     30.01R
ORD            PTSUNNY   61  47  59 VRB3      29.98S
BROKEN BOW     CLOUDY    59  47  64 N5        29.98R
BROWNLEE         N/A     58  30  34 N16         N/A
SPRINGVIEW       N/A     57  36  46 NW3G12      N/A
DUNNING          N/A     57  39  52 E13         N/A
BREWSTER         N/A     61  42  49 NE9         N/A
ROSE             N/A     58  43  58 N10         N/A
NEWPORT          N/A     57  39  51 E6          N/A
COMSTOCK         N/A     65  51  59 CALM        N/A
CHAMBERS         N/A     67  44  43 N5          N/A
EWING            N/A     63  46  54 SW6         N/A
$$

...SOME WEATHER OBSERVATIONS FROM AROUND THE REGION...

CITY           SKY/WX    TMP DP  RH WIND       PRES   REMARKS
DENVER         CLOUDY    56  35  45 E6        30.09R
LARAMIE        CLOUDY    47  31  53 SE12      30.09R
CHEYENNE       PTSUNNY   49  36  61 VRB5      30.08R
SCOTTSBLUFF    CLOUDY    53  28  38 NE7       30.07R
RAPID CITY     SUNNY     56  14  19 NW7       30.03S
PIERRE         MOSUNNY   56  29  35 W10       30.01R
WINNER         FAIR      58  30  34 N12       30.03R
SIOUX FALLS    MOSUNNY   64  44  48 S20       29.96S
OMAHA          PTSUNNY   69  43  38 S21G28    30.05F
GRAND ISLAND   PTSUNNY   65  48  54 S18       29.99S
KANSAS CITY    PTSUNNY   71  45  39 S15       30.15S
WICHITA        CLOUDY    69  46  43 S23G33    30.10F
HAYS           MOSUNNY   70  48  46 S33G41    29.94F
LIBERAL        CLOUDY    64  46  52 SW24G30   30.02S
GOODLAND       MOSUNNY   64  45  49 N21       29.94R
$$



USA.gov is the U.S. government's official web portal to all federal, state and local government web resources and services.